sat.trackr.live / text

‹ back to catalog

STARLINK-36886

NORAD 68175 · 2026-050J

PAYLOAD ACTIVE UNKNOWN

§ Identity

Operator
Country
US
Launch date
2026-03-14
Launch site
AFETR
Launch vehicle
Mass (kg)
RCS (m²)

Purposes: comms

External: N2YO · Heavens-Above · Gunter

§ Orbital elements

Epoch: 2026-05-24T18:38:40.932960Z

Period
93.85 min
Inclination
53.1584°
Eccentricity
0.0000795
Mean motion
15.34400691 rev/d
Perigee alt
462.2 km
Apogee alt
463.2 km
Semi-major
6,840.8 km
B*
7.7386e-4
RAAN
272.5350°
Arg perigee
105.7376°
Mean anomaly
254.3715°
Rev number
1,234

§ Raw data

STARLINK-368861 68175U 26050J   26144.77686265  .00025860  00000+0  77386-3 0  99982 68175  53.1584 272.5350 0000795 105.7376 254.3715 15.34400691 12349

JSON: /api/v1/satellites/68175 · /tle

For live sub-satellite position, see the globe view (requires WebGL).

§ Visibility from observer

Set your observer location to see the next 7 days of passes ≥ 10°. The values pass through the URL so the page stays shareable.

No JS? Fill the form by hand. The geolocation button needs JavaScript.